Home   Weather   Southend-on-Sea   Past weeks

Flag for United Kingdom Past Weather in Southend-on-Sea, England, United Kingdom — Yesterday and Last 2 Weeks

Now
23 °F

Ice fog.


Feels Like: 23 °F
Forecast: N/A
Wind: No wind

Location: Southend Airport-On-Sea

Current Time: Jan 22, 2017 at 8:35:48 pm

Latest Report: Jan 22, 2017 at 7:50 pm


Visibility: 0 mi

Pressure: 30.36 "Hg

Humidity: 93%

Dew Point: 21 °F

Location of Southend-on-SeaLocation

Past Weather in Southend-on-Sea — Graph

°F

Southend-on-Sea Temperature Yesterday

Maximum temperature yesterday: 41 °F (at 12:50 pm)
Minimum temperature yesterday: 23 °F (at 7:50 am)
Average temperature yesterday: 31 °F

High & Low Weather Summary for the Past Weeks

 TemperatureHumidityPressure
High54 °F (Jan 11, 11:20 am)100% (Jan 19, 5:20 am)30.69 "Hg (Jan 19, 5:20 am)
Low19 °F (Jan 22, 5:20 am)50% (Jan 11, 5:50 pm)29.27 "Hg (Jan 12, 6:20 pm)
Average38 °F81%30.22 "Hg
* Reported Jan 7 7:20 pm — Jan 22 7:20 pm, Southend-on-Sea, Weather by CustomWeather, © 2017

Note: Actual official high and low records may vary slightly from our data, if they occured in-between our weather recording intervals... More about our weather records

Advertising

Southend-on-Sea Weather History for the Previous 24 Hours

Scroll right to see more
 ConditionsComfort  
Time TempWeatherWind HumidityBarometerVisibility
7:20 pm
Sun, Jan 22
25 °FIce fog.No wind93%30.33 "Hg0 mi
6:50 pm27 °FIce fog.No wind93%30.33 "Hg0 mi
6:20 pm27 °FIce fog.No wind93%30.33 "Hg0 mi
5:50 pm27 °FIce fog.No wind93%30.33 "Hg0 mi
5:20 pm27 °FIce fog.2 mph93%30.33 "Hg0 mi
4:50 pm28 °FIce fog.2 mph93%30.33 "Hg0 mi
3:50 pm30 °FFog.2 mph93%30.30 "Hg0 mi
3:20 pm32 °FFog.2 mph93%30.30 "Hg0 mi
2:50 pm34 °FFog.2 mph87%30.30 "Hg0 mi
2:20 pm36 °FFog.2 mph87%30.33 "Hg0 mi
1:50 pm36 °FFog.2 mph87%30.33 "Hg0 mi
1:20 pm37 °FFog.2 mph87%30.33 "Hg2 mi
12:50 pm37 °FSleet. Haze.2 mph87%30.33 "Hg2 mi
12:20 pm37 °FHaze.2 mph81%30.33 "Hg2 mi
11:50 am37 °FHaze.2 mph81%30.36 "Hg2 mi
11:20 am36 °FHaze.No wind87%30.36 "Hg2 mi
10:50 am34 °FFog.No wind93%30.36 "Hg2 mi
10:20 am30 °FIce fog.No wind93%30.36 "Hg1 mi
9:50 am27 °FIce fog.No wind93%30.33 "Hg1 mi
9:20 am25 °FHaze.2 mph86%30.33 "Hg1 mi
8:50 am23 °FIce fog.No wind93%30.33 "Hg1 mi
8:20 am23 °FHaze.2 mph86%30.30 "Hg1 mi
7:50 am21 °FHaze.2 mph86%30.30 "Hg1 mi
7:20 am19 °FIce fog.2 mph93%30.30 "Hg2 mi
6:50 am23 °FIce fog.No wind86%30.30 "Hg2 mi
6:20 am21 °FIce fog.No wind93%30.30 "Hg3 mi
5:50 am21 °FIce fog.No wind93%30.30 "Hg2 mi
5:20 am19 °FIce fog.No wind93%30.30 "Hg3 mi
4:50 am21 °FIce fog.No wind93%30.30 "Hg3 mi
4:20 am21 °FIce fog.No wind93%30.33 "Hg3 mi
1:50 am21 °FClear.No wind93%30.33 "Hg5 mi
12:50 am25 °FPassing clouds.No wind86%30.30 "HgN/A
11:50 pm
Sat, Jan 21
25 °FPassing clouds.No wind86%30.30 "HgN/A
11:20 pm23 °FPassing clouds.No wind93%30.33 "HgN/A
10:50 pm23 °FClear.No wind86%30.30 "Hg10 mi
10:20 pm25 °FClear.2 mph93%30.30 "Hg10 mi
9:50 pm25 °FClear.2 mph86%30.30 "Hg10 mi
9:20 pm27 °FClear.2 mph86%30.30 "Hg10 mi
8:50 pm28 °FClear.2 mph74%30.30 "Hg10 mi
8:20 pm28 °FClear.2 mph74%30.30 "Hg10 mi
Weather by CustomWeather, © 2017

See weather overviewHow to use our weather pages